Terminal Aerodrome Forecast
Issued by NWS Cheyenne, WY

Home | Current Version | Previous Version | Text Only | Print | Product List | Glossary On
Versions: 1 2 3 4 5 6 7 8 9 10 11 12 13 14 15 16 17 18 19 20 21 22 23 24 25
000
FTUS45 KCYS 212300
TAFCYS
TAF
KCYS 212321Z 2200/2224 27012G23KT P6SM VCSH BKN100
     FM220500 30012KT P6SM BKN120
     FM221500 28012G23KT P6SM SCT120
     FM221900 23012G24KT P6SM BKN120=

USA.gov is the U.S. government's official web portal to all federal, state and local government web resources and services.